Location: San Martino di Castrozza
(46.2667°N, 11.8000°E)
Time: 15:21:04
(UTC+00:00)

ATLAS 2AS CENTAUR R/B - Pass Details

Date: 23 April 2021
Orbit: 949 x 1263 km, 63.7° (Epoch: 07 May)

Event Time Altitude Azimuth Distance (km) Brightness Sun altitude
Rises 02:21:46 0° 320° (NW) 4,096 5.8 -17.3°
Reaches altitude 10° 02:24:37 10° 317° (NW) 3,088 5.1 -16.9°
Maximum altitude 02:31:51 65° 238° (WSW) 1,209 2.7 -16.0°
Drops below altitude 10° 02:38:31 10° 159° (SSE) 2,844 4.8 -15.0°
Sets 02:41:03 0° 156° (SSE) 3,753 5.4 -14.7°
